TimeEST,TemperatureF,Dew PointF,Humidity,Sea Level PressureIn,VisibilityMPH,Wind Direction,Wind SpeedMPH,Gust SpeedMPH,PrecipitationIn,Events,Conditions,WindDirDegrees,DateUTC
12:56 AM,44.1,41.0,89,30.32,10.0,North,4.6,-,N/A,,Scattered Clouds,360,2012-12-14 05:56:00
1:03 AM,44.6,41.0,87,30.32,10.0,North,4.6,-,N/A,,Mostly Cloudy,360,2012-12-14 06:03:00
1:56 AM,44.1,39.9,85,30.32,10.0,NNW,3.5,-,N/A,,Overcast,340,2012-12-14 06:56:00
2:12 AM,42.8,39.2,87,30.32,10.0,North,3.5,-,N/A,,Scattered Clouds,350,2012-12-14 07:12:00
2:56 AM,41.0,37.9,89,30.30,9.0,Calm,Calm,-,N/A,,Clear,0,2012-12-14 07:56:00
3:56 AM,41.0,37.9,89,30.30,9.0,Calm,Calm,-,N/A,,Clear,0,2012-12-14 08:56:00
4:27 AM,42.8,39.2,87,30.29,9.0,North,5.8,-,N/A,,Mostly Cloudy,360,2012-12-14 09:27:00
4:56 AM,41.0,37.9,89,30.30,9.0,North,5.8,-,N/A,,Mostly Cloudy,360,2012-12-14 09:56:00
5:03 AM,41.0,37.4,87,30.30,9.0,North,5.8,-,N/A,,Scattered Clouds,350,2012-12-14 10:03:00
5:56 AM,39.9,37.0,89,30.32,9.0,North,6.9,-,N/A,,Clear,360,2012-12-14 10:56:00
6:56 AM,39.9,37.9,93,30.34,5.0,North,6.9,-,N/A,,Mostly Cloudy,10,2012-12-14 11:56:00
7:03 AM,41.0,37.4,87,30.34,8.0,NNE,8.1,-,N/A,,Overcast,20,2012-12-14 12:03:00
7:56 AM,42.1,39.9,92,30.34,5.0,NE,12.7,17.3,N/A,,Mostly Cloudy,50,2012-12-14 12:56:00
8:08 AM,42.8,37.4,81,30.35,5.0,NE,11.5,-,N/A,,Scattered Clouds,40,2012-12-14 13:08:00
8:56 AM,44.1,39.0,82,30.38,10.0,NNE,10.4,-,N/A,,Partly Cloudy,20,2012-12-14 13:56:00
9:56 AM,48.0,39.0,71,30.38,10.0,NNE,11.5,-,N/A,,Clear,30,2012-12-14 14:56:00
10:56 AM,52.0,39.9,63,30.38,10.0,NE,9.2,-,N/A,,Clear,40,2012-12-14 15:56:00
11:56 AM,55.0,41.0,59,30.34,10.0,North,9.2,-,N/A,,Clear,10,2012-12-14 16:56:00
12:56 PM,57.0,41.0,55,30.30,10.0,ENE,8.1,-,N/A,,Clear,60,2012-12-14 17:56:00
1:56 PM,59.0,42.1,53,30.26,10.0,NE,5.8,-,N/A,,Scattered Clouds,50,2012-12-14 18:56:00
2:56 PM,61.0,39.9,46,30.23,10.0,NE,5.8,-,N/A,,Clear,50,2012-12-14 19:56:00
3:56 PM,62.1,39.9,44,30.22,10.0,NNE,5.8,-,N/A,,Clear,30,2012-12-14 20:56:00
4:56 PM,57.9,41.0,53,30.22,10.0,NNE,4.6,-,N/A,,Clear,30,2012-12-14 21:56:00
5:56 PM,52.0,41.0,66,30.23,10.0,ENE,4.6,-,N/A,,Clear,60,2012-12-14 22:56:00
6:56 PM,46.0,42.1,86,30.25,10.0,Calm,Calm,-,N/A,,Clear,0,2012-12-14 23:56:00
7:56 PM,48.0,42.1,80,30.25,10.0,ENE,3.5,-,N/A,,Clear,60,2012-12-15 00:56:00
8:56 PM,48.9,44.1,83,30.25,10.0,North,3.5,-,N/A,,Mostly Cloudy,360,2012-12-15 01:56:00
9:56 PM,51.1,43.0,74,30.25,10.0,North,3.5,-,N/A,,Overcast,10,2012-12-15 02:56:00
10:39 PM,51.8,42.8,71,30.24,10.0,Calm,Calm,-,N/A,,Overcast,0,2012-12-15 03:39:00
10:56 PM,53.1,42.1,66,30.26,10.0,Calm,Calm,-,N/A,,Overcast,0,2012-12-15 03:56:00
11:56 PM,52.0,43.0,71,30.23,10.0,NE,3.5,-,N/A,,Overcast,50,2012-12-15 04:56:00